TIANZHOU-7

Last updated on Mon Sep 16 2024 00:02:07 GMT+0000 (Coordinated Universal Time)

1 58811U 24013A 24258.93263179 .00034687 00000+0 35832-3 0 9995 2 58811 41.4678 255.9664 0001963 150.3393 209.7558 15.64045402159928
UTC large
Height (km)
Speed (km/s)
/
Latitude / Longitude
Inclination (degrees)
Orbital Period (minutes)
Azimuth
Elevation
Range (km)
Doppler Factor

Next 0 passes for location: London (51.5072 / 0.1276)

Sorry there are no passes over London.